When you browse on this site, cookies collect data to enhance your experience and personalize the content and advertising you see.
Visit our Privacy Policy to learn more. By continuing to use the site, you agree to this use of cookies and data.
  • In Romania
  • List of Countries
  • For 7 days
  • Water Temperature
  • Satellite Maps
  • Weather Map
  • Weather Widgets
  • user-avatar
    Login

    Hourly Weather Zagorskiy

    Today, 16 January, Wednesday

    Time Temperature Precipitation Wind Pressure Humidity
    00:00 -1°C° 0 mm 3 mps 720 mmHg 85%
    01:00 -1°C° 0 mm 2 mps 720 mmHg 82%
    02:00 +1°C° 0 mm 2 mps 719 mmHg 79%
    03:00 0°C° 0 mm 0 mps 719 mmHg 83%
    04:00 +1°C° 0 mm 0 mps 719 mmHg 79%
    05:00 +1°C° 0 mm 0 mps 719 mmHg 76%
    06:00 +2°C° 0 mm 0 mps 719 mmHg 72%
    07:00 +4°C° 0 mm 1 mps 719 mmHg 68%
    08:00 +4°C° 0 mm 1 mps 719 mmHg 64%
    09:00 +6°C° 0 mm 1 mps 718 mmHg 60%
    10:00 +5°C° 0 mm 2 mps 719 mmHg 59%
    11:00 +5°C° 0 mm 3 mps 720 mmHg 58%
    12:00 +6°C° 0 mm 4 mps 721 mmHg 57%
    13:00 +5°C° 0 mm 5 mps 721 mmHg 64%
    14:00 +2°C° 0 mm 7 mps 722 mmHg 71%
    15:00 -1°C° 0 mm 9 mps 722 mmHg 80%
    16:00 -2°C° 0 mm 7 mps 723 mmHg 79%
    17:00 -2°C° 0 mm 6 mps 724 mmHg 79%
    18:00 -2°C° 0 mm 5 mps 725 mmHg 79%
    19:00 -2°C° 0 mm 4 mps 726 mmHg 79%
    20:00 -2°C° 0 mm 4 mps 726 mmHg 79%
    21:00 -1°C° 0 mm 3 mps 726 mmHg 79%
    22:00 -1°C° 0 mm 3 mps 727 mmHg 79%
    23:00 -2°C° 0 mm 3 mps 727 mmHg 78%

    Tomorrow, 17 January, Thursday

    Time Temperature Precipitation Wind Pressure Humidity
    00:00 -2°C° 0 mm 2 mps 727 mmHg 78%
    01:00 -2°C° 0.1 mm 2 mps 728 mmHg 78%
    02:00 -2°C° 0.1 mm 2 mps 728 mmHg 78%
    03:00 0°C° 0.1 mm 1 mps 728 mmHg 79%
    04:00 0°C° 0.1 mm 1 mps 729 mmHg 80%
    05:00 0°C° 0.1 mm 1 mps 729 mmHg 80%
    06:00 0°C° 0.1 mm 1 mps 730 mmHg 81%
    07:00 0°C° 0 mm 1 mps 730 mmHg 80%
    08:00 0°C° 0 mm 1 mps 731 mmHg 79%
    09:00 -1°C° 0 mm 0 mps 731 mmHg 78%
    10:00 0°C° 0 mm 1 mps 731 mmHg 75%
    11:00 +1°C° 0 mm 1 mps 732 mmHg 71%
    12:00 +1°C° 0 mm 1 mps 732 mmHg 68%
    13:00 +1°C° 0 mm 1 mps 732 mmHg 67%
    14:00 +2°C° 0 mm 1 mps 733 mmHg 67%
    15:00 +1°C° 0 mm 2 mps 733 mmHg 66%
    16:00 +1°C° 0 mm 1 mps 733 mmHg 70%
    17:00 0°C° 0 mm 1 mps 734 mmHg 75%
    18:00 0°C° 0 mm 1 mps 735 mmHg 79%
    19:00 0°C° 0 mm 1 mps 735 mmHg 81%
    20:00 -1°C° 0 mm 1 mps 735 mmHg 83%
    21:00 -1°C° 0 mm 1 mps 735 mmHg 85%
    22:00 -1°C° 0 mm 1 mps 736 mmHg 85%
    23:00 -1°C° 0 mm 1 mps 736 mmHg 84%

    Day after tomorrow, 18 January, Friday

    Time Temperature Precipitation Wind Pressure Humidity
    00:00 -1°C° 0 mm 1 mps 736 mmHg 84%
    01:00 -1°C° 0 mm 1 mps 736 mmHg 82%
    02:00 -1°C° 0 mm 1 mps 737 mmHg 80%
    03:00 -1°C° 0 mm 1 mps 737 mmHg 78%
    04:00 0°C° 0 mm 1 mps 737 mmHg 75%
    05:00 0°C° 0 mm 1 mps 737 mmHg 72%
    06:00 0°C° 0 mm 1 mps 737 mmHg 70%
    07:00 0°C° 0 mm 1 mps 737 mmHg 65%
    08:00 +1°C° 0 mm 1 mps 737 mmHg 61%
    09:00 +1°C° 0 mm 1 mps 737 mmHg 56%
    10:00 +2°C° 0 mm 1 mps 737 mmHg 51%
    11:00 +3°C° 0 mm 0 mps 737 mmHg 45%
    12:00 +4°C° 0 mm 0 mps 737 mmHg 40%
    13:00 +4°C° 0 mm 0 mps 736 mmHg 42%
    14:00 +4°C° 0 mm 0 mps 736 mmHg 44%
    15:00 +4°C° 0 mm 0 mps 736 mmHg 46%
    16:00 +4°C° 0 mm 1 mps 736 mmHg 51%
    17:00 +3°C° 0 mm 1 mps 736 mmHg 55%
    18:00 +1°C° 0 mm 1 mps 737 mmHg 60%
    19:00 +1°C° 0 mm 1 mps 737 mmHg 61%
    20:00 +1°C° 0 mm 1 mps 737 mmHg 62%
    21:00 +1°C° 0 mm 1 mps 736 mmHg 63%
    22:00 +1°C° 0 mm 1 mps 736 mmHg 62%
    23:00 +1°C° 0 mm 1 mps 736 mmHg 61%

    19 January, Saturday

    Time Temperature Precipitation Wind Pressure Humidity
    00:00 +1°C° 0 mm 1 mps 736 mmHg 60%
    01:00 +1°C° 0 mm 1 mps 736 mmHg 58%
    02:00 +1°C° 0 mm 1 mps 736 mmHg 56%
    03:00 +1°C° 0 mm 1 mps 736 mmHg 55%
    04:00 +1°C° 0 mm 1 mps 736 mmHg 52%
    05:00 +1°C° 0 mm 1 mps 735 mmHg 50%
    06:00 +1°C° 0 mm 1 mps 735 mmHg 48%
    07:00 +2°C° 0 mm 1 mps 735 mmHg 45%
    08:00 +2°C° 0 mm 1 mps 735 mmHg 42%
    09:00 +3°C° 0 mm 1 mps 735 mmHg 39%
    10:00 +4°C° 0 mm 1 mps 735 mmHg 35%
    11:00 +5°C° 0 mm 1 mps 735 mmHg 32%
    12:00 +6°C° 0 mm 1 mps 735 mmHg 28%
    13:00 +6°C° 0 mm 1 mps 735 mmHg 31%
    14:00 +5°C° 0 mm 0 mps 735 mmHg 35%
    15:00 +5°C° 0 mm 0 mps 734 mmHg 38%
    16:00 +4°C° 0 mm 0 mps 735 mmHg 38%
    17:00 +4°C° 0 mm 1 mps 735 mmHg 39%
    18:00 +4°C° 0 mm 1 mps 735 mmHg 39%
    19:00 +3°C° 0 mm 1 mps 735 mmHg 39%
    20:00 +3°C° 0 mm 1 mps 735 mmHg 39%
    21:00 +3°C° 0 mm 1 mps 735 mmHg 39%
    22:00 +3°C° 0 mm 1 mps 735 mmHg 38%
    23:00 +3°C° 0 mm 1 mps 735 mmHg 38%

    20 January, Sunday

    Time Temperature Precipitation Wind Pressure Humidity
    00:00 +3°C° 0 mm 1 mps 735 mmHg 38%
    01:00 +3°C° 0 mm 1 mps 735 mmHg 38%
    02:00 +3°C° 0 mm 1 mps 735 mmHg 39%
    03:00 +2°C° 0 mm 0 mps 736 mmHg 39%
    04:00 +3°C° 0 mm 1 mps 736 mmHg 40%
    05:00 +3°C° 0 mm 1 mps 736 mmHg 40%
    06:00 +3°C° 0 mm 1 mps 736 mmHg 41%
    07:00 +2°C° 0 mm 0 mps 736 mmHg 42%
    08:00 +2°C° 0 mm 0 mps 736 mmHg 44%
    09:00 +2°C° 0 mm 0 mps 737 mmHg 45%
    10:00 +3°C° 0 mm 0 mps 736 mmHg 45%
    11:00 +4°C° 0 mm 0 mps 736 mmHg 45%
    12:00 +5°C° 0 mm 0 mps 736 mmHg 45%
    13:00 +6°C° 0 mm 1 mps 736 mmHg 49%
    14:00 +6°C° 0 mm 1 mps 736 mmHg 53%
    15:00 +6°C° 0 mm 1 mps 736 mmHg 57%
    16:00 +5°C° 0 mm 1 mps 736 mmHg 60%
    17:00 +4°C° 0 mm 1 mps 737 mmHg 64%
    18:00 +3°C° 0 mm 1 mps 737 mmHg 68%
    19:00 +2°C° 0 mm 2 mps 737 mmHg 68%
    20:00 +1°C° 0 mm 2 mps 737 mmHg 68%
    21:00 +1°C° 0 mm 2 mps 737 mmHg 68%
    22:00 -1°C° 0 mm 2 mps 737 mmHg 68%
    23:00 -1°C° 0 mm 2 mps 736 mmHg 67%

    21 January, Monday

    Time Temperature Precipitation Wind Pressure Humidity
    00:00 -1°C° 0 mm 2 mps 736 mmHg 67%
    01:00 -1°C° 0 mm 2 mps 736 mmHg 67%
    02:00 -1°C° 0 mm 2 mps 736 mmHg 68%
    03:00 -1°C° 0 mm 2 mps 736 mmHg 68%
    04:00 -2°C° 0 mm 2 mps 735 mmHg 69%
    05:00 -2°C° 0 mm 2 mps 735 mmHg 71%
    06:00 -2°C° 0 mm 3 mps 735 mmHg 72%
    07:00 -1°C° 0 mm 3 mps 735 mmHg 70%
    08:00 -1°C° 0 mm 3 mps 735 mmHg 69%
    09:00 -1°C° 0 mm 3 mps 734 mmHg 67%
    10:00 +1°C° 0 mm 3 mps 734 mmHg 61%
    11:00 +2°C° 0 mm 3 mps 733 mmHg 56%
    12:00 +3°C° 0 mm 3 mps 733 mmHg 50%
    13:00 +3°C° 0 mm 3 mps 732 mmHg 52%
    14:00 +4°C° 0 mm 3 mps 732 mmHg 53%
    15:00 +4°C° 0 mm 3 mps 731 mmHg 54%
    16:00 +4°C° 0 mm 2 mps 732 mmHg 59%
    17:00 +2°C° 0 mm 2 mps 732 mmHg 63%
    18:00 +1°C° 0 mm 2 mps 732 mmHg 68%
    19:00 +2°C° 0 mm 1 mps 732 mmHg 66%
    20:00 +2°C° 0 mm 1 mps 732 mmHg 64%
    21:00 +3°C° 0 mm 1 mps 732 mmHg 63%
    22:00 +3°C° 0 mm 1 mps 732 mmHg 60%
    23:00 +3°C° 0 mm 1 mps 732 mmHg 58%
    Show more